Weather History for KDRO - May, 2013

Change the Weather History Date:

Sunday, May 5, 2013

  Actual Average Record
Temperature  
Mean Temperature 56 °F 50 °F  
Max Temperature 66 °F 67 °F 82 °F (1989)
Min Temperature 45 °F 33 °F 25 °F (2002)
Degree Days  
Heating Degree Days 9 15  
Month to date heating degree days 83 79  
Since 1 July heating degree days 6823 6715  
Cooling Degree Days 0 0  
Month to date cooling degree days 0 0  
Year to date cooling degree days 0 0  
Growing Degree Days 5 (Base 50)    
Moisture  
Dew Point 19 °F    
Average Humidity 26    
Maximum Humidity 38    
Minimum Humidity 14    
Precipitation  
Precipitation T in 0.05 in 0.86 in (2015)
Month to date precipitation T 0.22  
Year to date precipitation 3.28 4.85  
Sea Level Pressure  
Sea Level Pressure 29.91 in    
Wind  
Wind Speed 6 mph (SE)    
Max Wind Speed 26 mph    
Max Gust Speed 43 mph    
Visibility 10 miles    
Events Rain    
T = Trace of Precipitation, MM = Missing Value Source: NWS Daily Summary

Daily Weather History Graph

Daily Weather History Graph

Search for Another Location

Airport or City:

Trip Planner

Search our weather history database for the weather conditions in past years. The results will help you decide how hot, cold, wet, or windy it might be!

Date:

Astronomy

May. 05, 2013 Rise Set
Actual Time 6:11 AM MDT 8:04 PM MDT
Civil Twilight 5:43 AM MDT 8:32 PM MDT
Nautical Twilight 5:09 AM MDT 9:06 PM MDT
Astronomical Twilight 4:32 AM MDT 9:43 PM MDT
Moon 3:38 AM MDT (5/5) 4:11 PM MDT (5/5)
Length of Visible Light 14h 49m
Length of Day
13h 52m
Waning Crescent, 17% of the Moon is Illuminated
May 5
Waning Crescent
May 9
New
May 17
First Quarter
May 24
Full
May 31
Last Quarter

Hourly Weather History & Observations

Time (MDT) Temp. Dew Point Humidity Pressure Visibility Wind Dir Wind Speed Gust Speed Precip Events Conditions
12:53 AM 57.9 °F 9.0 °F 14% 29.83 in 10.0 mi SE 16.1 mph 20.7 mph N/A   Clear
1:53 AM 55.9 °F 10.0 °F 16% 29.85 in 10.0 mi ESE 5.8 mph - N/A   Clear
2:53 AM 54.0 °F 12.0 °F 19% 29.85 in 10.0 mi SE 4.6 mph - N/A   Partly Cloudy
3:53 AM 48.0 °F 14.0 °F 26% 29.88 in 10.0 mi NE 5.8 mph - N/A   Mostly Cloudy
4:53 AM 48.0 °F 14.0 °F 26% 29.88 in 10.0 mi ESE 3.5 mph - N/A   Scattered Clouds
5:53 AM 46.9 °F 14.0 °F 27% 29.91 in 10.0 mi Calm Calm - N/A   Mostly Cloudy
6:53 AM 48.0 °F 15.1 °F 27% 29.94 in 10.0 mi ENE 4.6 mph - N/A   Mostly Cloudy
7:53 AM 50.0 °F 17.1 °F 27% 29.95 in 10.0 mi East 3.5 mph - N/A   Clear
8:53 AM 55.0 °F 15.1 °F 21% 29.97 in 10.0 mi SE 10.4 mph - N/A   Clear
9:53 AM 55.9 °F 16.0 °F 21% 29.99 in 10.0 mi ESE 8.1 mph - N/A   Clear
10:53 AM 61.0 °F 17.1 °F 18% 29.95 in 10.0 mi East 11.5 mph 16.1 mph N/A   Scattered Clouds
11:53 AM 62.1 °F 18.0 °F 18% 29.93 in 10.0 mi ESE 4.6 mph - N/A   Mostly Cloudy
12:53 PM 64.0 °F 18.0 °F 17% 29.91 in 10.0 mi Variable 4.6 mph - N/A   Partly Cloudy
1:53 PM 62.1 °F 19.0 °F 19% 29.90 in 10.0 mi East 5.8 mph - N/A   Mostly Cloudy
2:53 PM 64.9 °F 19.9 °F 18% 29.87 in 10.0 mi SSW 8.1 mph 19.6 mph N/A   Partly Cloudy
3:53 PM 64.0 °F 23.0 °F 21% 29.91 in 10.0 mi WSW 8.1 mph - N/A   Partly Cloudy
4:41 PM 60.8 °F 24.8 °F 25% 30.07 in 10.0 mi WSW 17.3 mph 42.6 mph 0.00 in Rain Light Rain
4:53 PM 61.0 °F 23.0 °F 23% 29.91 in 10.0 mi North 9.2 mph 29.9 mph 0.00 in   Mostly Cloudy
5:53 PM 62.1 °F 21.9 °F 21% 29.90 in 10.0 mi Variable 5.8 mph - N/A   Clear
6:53 PM 63.0 °F 21.0 °F 20% 29.88 in 10.0 mi SW 3.5 mph 18.4 mph N/A   Overcast
7:53 PM 60.1 °F 23.0 °F 24% 29.91 in 10.0 mi SSW 8.1 mph - N/A   Overcast
8:53 PM 57.9 °F 24.1 °F 27% 29.90 in 10.0 mi South 3.5 mph - N/A   Overcast
9:53 PM 55.9 °F 25.0 °F 30% 29.92 in 10.0 mi SE 9.2 mph - N/A   Mostly Cloudy
10:53 PM 54.0 °F 27.0 °F 35% 29.90 in 10.0 mi ESE 4.6 mph - N/A   Mostly Cloudy
11:53 PM 53.1 °F 28.0 °F 38% 29.91 in 10.0 mi Calm Calm - N/A   Overcast